Date String (YYYY-MM-DD hh:mm:ss) UTC,Instrument flags,absolute air pressure of the measurement (hPa),sample flow rate (lpm),inlet stack bypass flow (lpm),air temperature of the measurement (°C),ambient temperature measured by the external sensor (°C),aerosol sample conditioner tube jacket temperature (°C),OPC LED temperature (°C),internal box temperature (°C),relative humidity of the measurement (%),span deviation,mass concentration of particles derived from Lorenz-Mie calculation of OPC scattering (μg/m³),mass concentration of particles derived from Lorenz-Mie calculation of OPC scattering (μg/m³),mass concentration of particles derived from Lorenz-Mie calculation of OPC scattering (μg/m³)
DateTimeUTC,F1_M11,P_M11,Q1_M11,Q2_M11,T1_M11,T2_M11,T3_M11,T4_M11,T5_M11,U1_M11,ZSPAN_M11,X0_M11,X2_M11,X1_M11
2024-02-13 10:00:00,SystemResetWarning,0825.6,5.00,000.00,018.3,017.7,000.0,026.8,020.0,13.0,0000.0,0017.49,0009.19,0008.63
2024-02-13 10:01:00,SystemResetWarning,0825.6,5.00,000.00,018.3,017.7,000.0,026.8,020.0,14.8,0000.0,0018.63,0009.97,0009.35
2024-02-13 10:02:00,SystemResetWarning,0825.7,5.00,000.00,018.3,017.7,000.0,026.8,020.0,16.3,0000.0,0018.85,0010.29,0009.64
2024-02-13 10:03:00,SystemResetWarning,0825.7,5.00,000.00,018.3,017.7,000.0,026.8,020.0,16.2,0000.0,0019.08,0010.41,0009.75
2024-02-13 10:04:00,SystemResetWarning,0825.8,5.00,000.00,018.3,017.7,000.0,026.8,020.0,15.8,0000.0,0019.08,0010.41,0009.76
2024-02-13 10:05:00,SystemResetWarning,0825.8,5.00,000.00,018.3,017.7,000.0,026.8,020.0,16.0,0000.0,0019.08,0010.36,0009.72
2024-02-13 10:06:00,SystemResetWarning,0825.9,5.00,000.00,018.3,017.7,000.0,026.8,020.0,16.4,0000.0,0017.76,0010.04,0009.43
2024-02-13 10:07:00,SystemResetWarning,0825.9,5.00,000.00,018.3,017.7,000.0,026.8,020.0,16.6,0000.0,0015.80,0009.53,0008.95
2024-02-13 10:08:00,SystemResetWarning,0825.9,5.00,000.00,018.3,017.7,000.0,026.8,020.0,16.7,0000.0,0014.97,0009.69,0009.14
2024-02-13 10:09:00,SystemResetWarning,0825.9,5.00,000.00,018.3,017.7,000.0,026.8,020.0,16.6,0000.0,0014.95,0009.97,0009.45
2024-02-13 10:10:00,SystemResetWarning,0825.9,5.00,000.00,018.3,017.7,000.0,026.8,020.0,16.2,0000.0,0014.91,0010.13,0009.62
2024-02-13 10:11:00,SystemResetWarning,0825.9,5.00,000.00,018.3,017.7,000.0,026.8,020.0,16.4,0000.0,0014.31,0010.38,0009.87
2024-02-13 10:12:00,SystemResetWarning,0825.9,5.00,000.00,018.3,017.7,000.0,026.8,020.0,16.5,0000.0,0013.89,0010.43,0009.98
2024-02-13 10:13:00,SystemResetWarning,0825.9,5.01,000.00,018.3,017.7,000.0,026.8,020.0,16.4,0000.0,0014.52,0010.63,0010.22
2024-02-13 10:14:00,SystemResetWarning,0825.8,5.01,000.00,018.3,017.7,000.0,026.8,020.0,15.6,0000.0,0015.38,0011.01,0010.58
2024-02-13 10:15:00,SystemResetWarning,0825.8,5.01,000.00,018.3,017.7,000.0,026.8,020.0,15.3,0001.8,0016.36,0011.60,0011.16
2024-02-13 10:16:00,SystemResetWarning,0825.8,5.00,000.00,018.3,017.7,000.0,026.8,020.0,15.9,0001.5,0017.39,0012.10,0011.64
2024-02-13 10:17:00,SystemResetWarning,0825.9,5.00,000.00,018.3,017.7,000.0,026.8,020.0,15.7,0002.4,0018.44,0012.51,0012.03
2024-02-13 10:18:00,SystemResetWarning,0825.9,4.99,000.00,018.3,017.7,000.0,026.8,020.0,14.8,0002.0,0019.97,0013.32,0012.77
2024-02-13 10:19:00,SystemResetWarning,0825.8,4.99,000.00,018.3,017.7,000.0,026.7,020.0,14.6,0002.5,0020.37,0013.34,0012.80
2024-02-13 10:20:00,SystemResetWarning,0825.8,5.00,000.00,018.3,017.7,000.0,026.8,020.0,14.5,0002.4,0020.25,0013.23,0012.70
2024-02-13 10:21:00,SystemResetWarning,0825.8,5.01,000.00,018.3,017.7,000.0,026.8,020.0,14.7,0002.8,0020.02,0012.88,0012.38
2024-02-13 10:22:00,SystemResetWarning,0825.7,5.00,000.00,018.3,017.7,000.0,026.8,020.0,14.6,0003.1,0020.17,0012.81,0012.31
2024-02-13 10:23:00,SystemResetWarning,0825.7,5.01,000.00,018.3,017.7,000.0,026.8,020.0,14.8,0003.3,0020.32,0012.73,0012.22
2024-02-13 10:24:00,SystemResetWarning,0825.6,5.00,000.00,018.3,017.7,000.0,026.8,020.0,15.0,0003.5,0019.76,0012.29,0011.78
2024-02-13 10:25:00,SystemResetWarning,0825.6,5.00,000.00,018.3,017.7,000.0,026.8,020.0,14.8,0003.1,0018.26,0011.64,0011.17
2024-02-13 10:26:00,SystemResetWarning,0825.6,5.00,000.00,018.3,017.7,000.0,026.8,020.0,14.8,0002.5,0017.46,0010.90,0010.45
2024-02-13 10:27:00,SystemResetWarning,0825.7,5.01,000.00,018.3,017.7,000.0,026.8,020.0,14.8,0003.8,0016.62,0010.33,0009.90
2024-02-13 10:28:00,SystemResetWarning,0825.8,4.99,000.00,018.3,017.7,000.0,026.8,020.0,14.7,0001.4,0015.47,0009.86,0009.47
2024-02-13 10:29:00,SystemResetWarning,0825.8,5.00,000.00,018.3,017.7,000.0,026.8,020.0,14.6,0002.6,0014.17,0009.24,0008.89
2024-02-13 10:30:00,SystemResetWarning,0825.8,5.00,000.00,018.3,017.7,000.0,026.8,020.0,14.5,0000.0,0013.34,0008.84,0008.50
2024-02-13 10:31:00,SystemResetWarning,0825.8,5.00,000.00,018.3,017.7,000.0,026.8,020.0,14.4,0000.0,0012.88,0008.46,0008.14
2024-02-13 10:32:00,SystemResetWarning,0825.8,5.00,000.00,018.3,017.7,000.0,026.8,020.0,14.4,0000.0,0012.51,0008.32,0008.00
2024-02-13 10:33:00,SystemResetWarning,0825.8,5.00,000.00,018.3,017.7,000.0,026.8,020.0,14.4,0000.0,0012.00,0008.10,0007.80
2024-02-13 10:34:00,SystemResetWarning,0825.8,5.00,000.00,018.3,017.7,000.0,026.8,020.0,14.4,0000.0,0012.00,0007.77,0007.47
2024-02-13 10:35:00,SystemResetWarning,0825.9,5.00,000.00,018.3,017.7,000.0,026.8,020.0,14.4,0000.0,0012.13,0007.60,0007.30
2024-02-13 10:36:00,SystemResetWarning,0825.9,5.00,000.00,018.3,017.7,000.0,026.8,020.0,14.5,0000.0,0012.12,0007.57,0007.28
2024-02-13 10:37:00,SystemResetWarning,0825.9,5.00,000.00,018.3,017.7,000.0,026.8,020.0,14.3,0000.0,0011.95,0007.64,0007.35
2024-02-13 10:38:00,SystemResetWarning,0825.9,5.00,000.00,018.3,017.7,000.0,026.8,020.0,14.3,0000.0,0011.60,0007.64,0007.36
2024-02-13 10:39:00,SystemResetWarning,0825.9,4.99,000.00,018.3,017.7,000.0,026.8,020.0,14.2,0000.0,0011.49,0007.56,0007.28
2024-02-13 10:40:00,SystemResetWarning,0825.9,5.01,000.00,018.3,017.7,000.0,026.8,020.0,14.1,0000.0,0011.83,0007.51,0007.23
2024-02-13 10:41:00,SystemResetWarning,0825.9,5.00,000.00,018.3,017.6,000.0,026.8,020.0,14.5,0000.0,0011.74,0007.39,0007.10
2024-02-13 10:42:00,SystemResetWarning,0825.9,5.00,000.00,018.3,017.6,000.0,026.8,020.0,14.6,0000.0,0011.68,0007.27,0006.96
2024-02-13 10:43:00,SystemResetWarning,0825.9,5.00,000.00,018.3,017.6,000.0,026.8,020.0,14.3,0000.0,0011.62,0007.18,0006.87
2024-02-13 10:44:00,SystemResetWarning,0826.0,5.00,000.00,018.3,017.6,000.0,026.8,020.0,14.3,0000.0,0011.45,0006.93,0006.63
2024-02-13 10:45:00,SystemResetWarning,0826.1,5.00,000.00,018.3,017.6,000.0,026.9,020.0,14.8,0000.0,0010.93,0006.73,0006.43
2024-02-13 10:46:00,SystemResetWarning,0826.2,4.99,000.00,018.3,017.5,000.0,026.9,020.0,15.2,0000.0,0009.97,0006.53,0006.26
2024-02-13 10:47:00,SystemResetWarning,0826.2,4.99,000.00,018.3,017.5,000.0,026.9,020.0,15.3,0000.0,0010.24,0006.38,0006.10
2024-02-13 10:48:00,SystemResetWarning,0826.2,5.01,000.00,018.3,017.5,000.0,026.9,020.0,15.2,0000.0,0010.19,0006.36,0006.08
2024-02-13 10:49:00,SystemResetWarning,0826.2,5.01,000.00,018.3,017.5,000.0,026.9,020.0,15.4,0000.0,0010.18,0006.32,0006.04
2024-02-13 10:50:00,SystemResetWarning,0826.2,5.01,000.00,018.3,017.4,000.0,026.9,020.0,15.7,0000.0,0010.13,0006.29,0006.00
2024-02-13 10:51:00,SystemResetWarning,0826.2,4.99,000.00,018.3,017.4,000.0,027.0,020.0,15.8,0000.0,0009.86,0006.33,0006.02
2024-02-13 10:52:00,SystemResetWarning,0826.2,4.99,000.00,018.3,017.4,000.0,027.0,020.0,15.5,0000.0,0009.83,0006.50,0006.21
2024-02-13 10:53:00,SystemResetWarning,0826.2,5.00,000.00,018.3,017.4,000.0,027.0,020.0,15.6,0000.0,0010.00,0006.68,0006.41
2024-02-13 10:54:00,SystemResetWarning,0826.1,5.01,000.00,018.3,017.4,000.0,027.0,020.0,15.6,0000.0,0010.23,0006.91,0006.61
2024-02-13 10:55:00,SystemResetWarning,0826.0,5.02,000.00,018.3,017.4,000.0,026.9,020.0,15.5,0000.0,0010.47,0007.22,0006.90
2024-02-13 10:56:00,SystemResetWarning,0826.1,4.99,000.00,018.3,017.4,000.0,026.9,020.0,15.4,0000.0,0011.06,0007.61,0007.23
2024-02-13 10:57:00,SystemResetWarning,0826.1,4.99,000.00,018.3,017.4,000.0,026.9,020.0,15.4,0000.0,0011.59,0008.09,0007.67
2024-02-13 10:58:00,SystemResetWarning,0826.1,5.02,000.00,018.3,017.5,000.0,026.9,020.0,15.3,0000.0,0011.48,0008.43,0007.97
2024-02-13 10:59:00,SystemResetWarning,0826.2,5.01,000.00,018.3,017.4,000.0,026.9,020.0,15.3,0000.7,0011.78,0008.58,0008.10
